Battle Mountain, Nevada, United States (89820)
Lat: 40.64N, Lon: 116.93W
Wx Zone: NVZ036
Local Info
Past Weather Observations for Thursday, July 2, 2015

NOTE: This archive is for the closest National Weather Service station to Battle Mountain. Information may differ from the station used for current weather conditions.

Click here for Long-term Archive

Time Weather Temperature Dewpoint Humidity Pressure Winds Precip Visibility
23:56
Clear
73°F / 23°C 52°F / 11°C 47% 30.06 in
(1018 mb)
SE 4.6 mph
(SE 7 kph)
- 10SM
22:56
Clear
75°F / 24°C 52°F / 11°C 44% 30.04 in
(1017 mb)
NNW 4.6 mph
(NNW 7 kph)
- 10SM
21:56
Clear
79°F / 26°C 52°F / 11°C 39% 30.04 in
(1017 mb)
Calm - 10SM
20:56
Clear
81°F / 27°C 50°F / 10°C 34% 30.06 in
(1018 mb)
S 6.9 mph
(S 11 kph)
- 10SM
19:56
Clear
81°F / 27°C 52°F / 11°C 37% 30.04 in
(1017 mb)
SE 19.6 mph
(SE 32 kph)
- 10SM
18:20
Partly Cloudy
84°F / 29°C 50°F / 10°C 31% 30.04 in
(1017 mb)
S 19.6 mph
(S 32 kph)
- 9SM
17:56
Mostly Cloudy
88°F / 31°C 45°F / 7°C 22% 30.04 in
(1017 mb)
ESE 17.3 mph
(ESE 28 kph)
- 8SM
16:56
Partly Cloudy
88°F / 31°C 50°F / 10°C 27% 30.04 in
(1017 mb)
ENE 15 mph
(ENE 24 kph)
0.00 in
(0.00 mm)
10SM
15:56
Partly Cloudy
91°F / 33°C 46°F / 8°C 21% 30.01 in
(1016 mb)
Calm - 10SM
14:56
Clear
99°F / 37°C 46°F / 8°C 17% 30.01 in
(1016 mb)
SSE 18.4 mph
(SSE 30 kph)
- 10SM
13:56
Mostly Cloudy
99°F / 37°C 45°F / 7°C 16% 30.01 in
(1016 mb)
ENE 5.8 mph
(ENE 9 kph)
- 10SM
12:56
Partly Cloudy
99°F / 37°C 46°F / 8°C 17% 30.04 in
(1017 mb)
Variable 4.6 mph
(Variable 7 kph)
- 10SM
11:56
Clear
99°F / 37°C 46°F / 8°C 17% 30.06 in
(1018 mb)
SSW 8.1 mph
(SSW 13 kph)
- 10SM
10:56
Clear
95°F / 35°C 46°F / 8°C 19% 30.09 in
(1019 mb)
Variable 5.8 mph
(Variable 9 kph)
- 10SM
09:56
Clear
91°F / 33°C 48°F / 9°C 23% 30.09 in
(1019 mb)
Calm - 10SM
06:56
Clear
82°F / 28°C 50°F / 10°C 32% 30.12 in
(1020 mb)
Calm - 9SM
05:56
Clear
77°F / 25°C 48°F / 9°C 36% 30.12 in
(1020 mb)
Calm - 10SM
03:56
Clear
73°F / 23°C 48°F / 9°C 41% 30.06 in
(1018 mb)
ENE 5.8 mph
(ENE 9 kph)
- 10SM
02:56
Clear
77°F / 25°C 46°F / 8°C 34% 30.06 in
(1018 mb)
S 9.2 mph
(S 15 kph)
- 10SM
01:56
Clear
75°F / 24°C 46°F / 8°C 36% 30.06 in
(1018 mb)
S 9.2 mph
(S 15 kph)
- 10SM
00:56
Clear
81°F / 27°C 45°F / 7°C 28% 30.06 in
(1018 mb)
S 10.4 mph
(S 17 kph)
- 10SM
Time Weather Temperature Dewpoint Humidity Pressure Winds Precip Visibility


Weather for websites

WeatherForYou.com, LLC is not responsible for any damages or problems caused by this service. Current weather conditions are obtained from the closest station including government and personal stations which may have varying degrees of accuracy. Weather forecasts are derived from the NOAA NDFD. Like all things, this site belongs to Jesus Christ... He just trusts us to maintain it. If you have any questions or comments email webmaster@weatherforyou.com

Copyright © 2015, WeatherForYou.com LLC. All rights reserved.